Location: Stoke Bliss
(52.2667°N, 2.5167°W)
Time: 02:04:40
(UTC+00:00)

Cosmos 2333 - Pass Details

Date: 03 March 2021
Orbit: 829 x 867 km, 70.9° (Epoch: 11 April)

Event Time Altitude Azimuth Distance (km) Brightness Sun altitude
Rises 20:14:29 0° 205° (SSW) 3,379 7.4 -22.1°
Reaches altitude 10° 20:16:54 10° 204° (SSW) 2,453 6.7 -22.5°
Maximum altitude 20:22:32 81° 119° (ESE) 864 4.1 -23.3°
Drops below altitude 10° 20:28:16 10° 33° (NNE) 2,495 6.5 -24.1°
Sets 20:30:45 0° 32° (NNE) 3,441 7.3 -24.4°
